#timestamp,LO_Frequency,Hit,StdDev 
1662670815.2,286047004.1,N
1662670835.0,286047002.4,N
1662670835.9,286047002.4,N
1662670855.8,286047005.4,N
1662670875.6,286047005.5,N
1662670895.4,286047005.0,N
1662670915.3,286047008.7,Y
1662670935.1,286047008.0,P
1662670955.9,286047008.8,N
1662670975.7,286047008.0,N
1662670995.5,286047006.2,N
1662671015.4,286047010.4,Y
1662671035.2,286047003.7,P
1662671055.0,286047004.8,P
1662671055.9,286047004.8,P
1662671075.8,286047007.3,Y
1662671095.6,286047003.5,P
1662671115.5,286047005.2,P
1662671135.3,286047007.0,P
1662671155.1,286047008.0,Y
1662671175.9,286047007.2,P
1662671195.7,286047006.2,P
1662671215.6,286047010.5,P
1662671235.4,286047008.1,Y
1662671255.2,286047001.0,P
1662671275.1,286046997.8,N
1662671276.0,286046997.8,N
1662671295.8,286046996.7,N
1662671315.7,286046997.2,N
1662671335.5,286046999.8,N
1662671355.3,286047002.7,N
1662671375.2,286046999.9,N
1662671395.9,286047002.7,N
1662671415.7,286047002.8,N
1662671435.6,286047002.2,N
1662671455.4,286046999.7,N
1662671475.2,286047007.5,N
1662671495.1,286047008.8,N
1662671496.0,286047008.8,N
1662671515.8,286047008.6,N
1662671535.7,286047008.0,N
1662671555.5,286047008.1,N
1662671575.3,286047009.4,N
1662671595.2,286047010.0,N
1662671615.0,286047009.9,N
1662671615.9,286047009.9,N
1662671635.8,286047010.3,N
1662671655.6,286047013.5,N
1662671675.4,286047014.7,N
1662671695.3,286047013.1,N
1662671715.1,286047011.6,N
1662671735.8,286047011.7,N
1662671755.7,286047014.1,N
1662671775.5,286047020.2,Y
1662671795.4,286047011.6,P
1662671815.2,286047011.5,P
1662671835.0,286047009.7,P
1662671835.9,286047009.7,Y
1662671855.8,286046999.8,P
1662671875.6,286046998.3,N
1662671895.5,286046996.7,N
1662671915.3,286046998.0,N
1662671935.1,286046994.8,N
1662671955.9,286046992.4,N
1662671975.7,286046992.2,N
1662671995.6,286046994.2,N
1662672015.4,286046996.3,N
1662672035.2,286046990.3,N
1662672055.1,286046993.0,N
1662672056.0,286046993.0,N
1662672075.8,286046993.3,N
1662672095.6,286046995.2,N
1662672115.5,286046997.7,N
1662672135.3,286046996.8,N
1662672155.2,286046998.2,N
1662672175.9,286046999.6,N
1662672195.7,286046995.7,N
1662672215.6,286046998.0,N
1662672235.4,286046993.7,N
1662672255.2,286046991.8,N
1662672275.1,286046993.4,N
1662672276.0,286046993.4,N
1662672295.8,286046993.3,N
1662672315.7,286046994.1,N
1662672335.5,286046994.1,N
1662672355.3,286046994.6,N
1662672375.2,286046995.2,N
1662672395.0,286046999.1,N
1662672395.9,286046999.1,N
1662672415.7,286046999.4,N
1662672435.6,286046999.3,N
1662672455.4,286046999.2,N
1662672475.3,286046998.1,N
1662672495.1,286047002.5,N
1662672496.0,286047002.5,N
1662672515.8,286047002.2,N
1662672535.7,286047002.4,N
1662672555.5,286047001.5,N
1662672575.3,286047003.1,N
1662672595.2,286047004.1,N
1662672615.0,286047005.8,N
1662672615.9,286047005.8,N
1662672635.8,286047004.6,N
1662672655.6,286047007.0,N
1662672675.4,286047008.2,N
1662672695.3,286047010.5,N
1662672715.1,286047009.4,N
1662672735.9,286047015.2,N
1662672755.7,286047014.4,N
1662672775.5,286047017.6,N
1662672795.4,286047019.3,N
1662672815.2,286047019.1,N
1662672835.0,286047018.9,N
1662672835.9,286047018.9,N
1662672855.8,286047024.7,Y
1662672875.6,286047015.8,P
1662672895.5,286047016.4,P
1662672915.3,286047015.2,P
1662672935.1,286047015.5,Y
1662672955.9,286047000.8,P
1662672975.7,286047000.7,N
1662672995.6,286047000.5,N
1662673015.4,286047001.6,N
1662673035.2,286047001.3,N
1662673055.1,286047003.7,N
1662673056.0,286047003.7,N
1662673075.8,286047005.6,N
1662673095.6,286047006.7,N
1662673115.5,286047009.7,N
1662673135.3,286047014.8,Y
1662673155.2,286047014.7,P
1662673175.0,286047014.8,N
1662673175.9,286047014.8,P
1662673195.8,286047015.2,Y
1662673215.6,286047000.7,P
1662673235.4,286046996.9,N
1662673255.3,286046999.2,N
1662673275.1,286046995.0,N
1662673295.9,286046997.2,N
1662673315.7,286046996.9,N
1662673335.5,286046998.7,N
1662673355.4,286046999.7,N
1662673375.2,286047004.0,N
1662673395.0,286047001.6,N
1662673395.9,286047001.6,N
1662673415.8,286047001.9,N
1662673435.6,286047001.6,N
1662673455.5,286047000.2,N
1662673475.3,286047002.5,N
1662673495.1,286047004.2,N
1662673515.9,286047003.0,N
1662673535.7,286047004.6,N
1662673555.5,286047004.9,N
1662673575.4,286047004.9,N
1662673595.2,286047005.2,N
1662673615.1,286047007.0,N
1662673616.0,286047007.0,N
1662673635.8,286047004.8,N
1662673655.6,286047004.6,N
1662673675.5,286047005.1,N
1662673695.3,286047006.1,N
1662673715.1,286047014.0,Y
1662673735.9,286047008.4,P
1662673755.7,286047005.0,N
1662673775.6,286047006.0,N
1662673795.4,286047004.0,N
1662673815.2,286047003.3,N
1662673835.1,286047005.6,N
1662673836.0,286047005.6,Y
1662673855.8,286047001.2,P
1662673875.6,286047001.9,N
1662673895.5,286047005.4,P
1662673915.3,286047004.7,N
1662673935.2,286047005.7,Y
1662673955.9,286047000.0,P
1662673975.7,286047004.0,N
1662673995.6,286047001.5,N
1662674015.4,286047002.6,N
1662674035.2,286047004.4,N
1662674055.1,286047003.4,N
1662674056.0,286047003.4,N
1662674075.8,286047003.8,N
1662674095.7,286047001.3,N
1662674115.5,286047003.9,N
1662674135.3,286047004.4,Y
1662674155.2,286047000.4,P
1662674175.0,286047001.0,N
1662674175.9,286047001.0,N
1662674195.8,286047000.8,N
1662674215.6,286047003.3,Y
1662674235.4,286047001.9,P
1662674255.3,286047006.0,P
1662674275.1,286047005.0,N
1662674295.8,286047007.6,Y
1662674315.7,286047004.4,P
1662674335.5,286047001.5,P
1662674355.4,286047002.3,N
1662674375.2,286047001.9,N
1662674395.0,286047003.7,Y
1662674395.9,286047003.7,P
